Regional Weather Roundup
Issued by NWS

Home | Current Version | Previous Version | Text Only | Print | Product List | Glossary On
Versions: 1 2 3 4 5 6 7 8 9 10 11 12 13 14 15 16 17 18 19 20 21 22 23 24 25 26 27 28
000
ASUS46 KPQR 270110
RWROR

OREGON REGIONAL WEATHER ROUNDUP
NATIONAL WEATHER SERVICE PORTLAND OR
600 PM PDT FRI AUG 26 2016

NOTE: "FAIR" INDICATES FEW OR NO CLOUDS BELOW 12,000 FEET WITH
NO SIGNIFICANT WEATHER AND/OR OBSTRUCTIONS TO VISIBILITY.

ORZ001>013-270200-
NORTHWEST OREGON


CITY           SKY/WX    TMP DP  RH WIND       PRES   REMARKS
ASTORIA        MOSUNNY   83  53  35 W8        29.85S
NEWPORT        MOSUNNY   55  50  82 SW10      29.93F
PORTLAND       PTSUNNY   95  39  14 CALM      29.79F HX  91
VANCOUVER WA   PTSUNNY   94  42  16 NW7       29.78F HX  90
SCAPPOOSE      PTSUNNY   95  45  17 N6        29.79S HX  91
HILLSBORO      PTSUNNY   96  38  13 VRB5      29.80F HX  91
AURORA         MOSUNNY   93  41  16 NW3       29.81S
MCMINNVILLE    PTSUNNY   96  39  13 N7        29.80F HX  91
SALEM          PTSUNNY   95  36  12 N7        29.79F HX  90
CORVALLIS        N/A     93  48  21 NW15      29.83S HX  90
EUGENE         PTSUNNY   95  32  11 N9        29.81F HX  90
$$

ORZ021-028-270200-
SOUTHWEST OREGON


CITY           SKY/WX    TMP DP  RH WIND       PRES   REMARKS
NORTH BEND     MOSUNNY   59  54  82 W10       29.96R
BROOKINGS      CLOUDY    56  53  90 SE7       29.97F
ROSEBURG       PTSUNNY   96  36  12 NW9G18    29.81S HX  91
SEXTON SUMMIT  PTSUNNY   79  34  19 VRB5      30.00F
MEDFORD        PTSUNNY   97  36  12 NW7       29.81S HX  92
$$

ORZ014>016-041-270200-
COLUMBIA GORGE


CITY           SKY/WX    TMP DP  RH WIND       PRES   REMARKS
TROUTDALE      MOSUNNY   94  43  17 CALM      29.78F HX  90
THE DALLES     MOSUNNY   96  30   9 S5        29.76F HX  90
$$

ORZ029>031-041-044-049-050-061>064-502-503-505>511-270200-
EASTERN OREGON


CITY           SKY/WX    TMP DP  RH WIND       PRES   REMARKS
REDMOND        PTSUNNY   85  23  10 VRB3      29.95F
BEND             N/A    N/A N/A N/A MISG        N/A
PRINEVILLE     PTSUNNY   82  28  14 CALM      29.95F
KLAMATH FALLS  MOSUNNY   85  34  16 VRB5      29.98F
LAKEVIEW       SUNNY     82  28  14 SW10      30.02F
HERMISTON      MOSUNNY   90  39  16 CALM      29.80F
PENDLETON      MOSUNNY   88  34  14 NW5       29.85F
JOHN DAY       MOSUNNY   84  28  13 W10       29.96S
MEACHAM        PTSUNNY   77  27  15 VRB5      29.99F
LA GRANDE      PTSUNNY   84  36  17 NW9       29.91S
BAKER CITY     MOSUNNY   81  31  16 W5        29.94F
BURNS          SUNNY     80  23  12 S9        29.98F
ROME             N/A     86  24  10 N10       29.95S
ONTARIO        FAIR      86  36  16 SE5       29.88F
$$




USA.gov is the U.S. government's official web portal to all federal, state and local government web resources and services.